Find ION Charismatic Carlus

NORAD ID: 64575 Int'l Des: 2025-135 Owner: DORBIT Country: I operational
LEOCIRCULARRETROGRADESSO

リアルタイム位置

3D地球を読み込み中...

ION Charismatic Carlusについて

説明を読み込み中...

次回通過

Passes for default location (London). Set your location on the main map for personalized predictions.

高度履歴

Loading altitude history...

軌道要素

1 64575U 25135AZ 26107.02967675 .00000235 00000-0 27036-4 0 9993
2 64575 97.7696 222.6877 0013695 132.2820 227.9564 14.94537807 44796
Epoch: Apr 17, 2026 • Age: 19 hours

現在のステータス

高度 604.3 km
速度 7.56 km/s
衛星直下点 -48.72°S, 102.49°W
打ち上げ日 Jun 23, 2025
運用期間 0.8 years
タイプ other

技術仕様

分類 Payload
質量 150.00 kg
乾燥質量 150.00 kg
総質量 220.00 kg
長さ 0.40 m
直径 0.40 m
スパン 0.40 m
形状 Box
製造者 DORBIT
バスタイプ ION-SC
フェーズステータス In Orbit
所有者/国 DORBIT/I

Most Searched